Millville, NJ

1:26 PM EST on December 04, 2016 (GMT -0500)
Millville Municipal

Weather History for KMIV - March, 2012

Change the Weather History Date:

Saturday, March 17, 2012

  Actual Average Record
Temperature  
Mean Temperature 53 °F -  
Max Temperature 66 °F 50 °F 71 °F (1963)
Min Temperature 42 °F 32 °F 17 °F (1966)
Degree Days  
Heating Degree Days 12    
Growing Degree Days 3 (Base 50)    
Moisture  
Dew Point 46 °F    
Average Humidity 91    
Maximum Humidity 100    
Minimum Humidity 58    
Precipitation  
Precipitation 0.00 in - - ()
Sea Level Pressure  
Sea Level Pressure 30.25 in    
Wind  
Wind Speed 2 mph (ESE)    
Max Wind Speed 12 mph    
Max Gust Speed -    
Visibility 4 miles    
Events Fog    
Averages and records for this station are not official NWS values.
T = Trace of Precipitation, MM = Missing Value Source: NWS Daily Summary

Daily Weather History Graph

Daily Weather History Graph

Search for Another Location

Airport or City:

Trip Planner

Search our weather history database for the weather conditions in past years. The results will help you decide how hot, cold, wet, or windy it might be!

Date:

Astronomy

Mar. 17, 2012 Rise Set
Actual Time 7:07 AM EDT 7:09 PM EDT
Civil Twilight 6:41 AM EDT 7:36 PM EDT
Nautical Twilight 6:09 AM EDT 8:07 PM EDT
Astronomical Twilight 5:38 AM EDT 8:39 PM EDT
Moon 4:06 AM EDT (3/17) 2:32 PM EDT (3/17)
Length of Visible Light 12h 55m
Length of Day
12h 01m
Waning Crescent, 23% of the Moon is Illuminated
Mar 17
Waning Crescent
Mar 22
New
Mar 30
First Quarter
Apr 6
Full
Apr 13
Last Quarter

Hourly Weather History & Observations

Time (EDT) Temp. Windchill Dew Point Humidity Pressure Visibility Wind Dir Wind Speed Gust Speed Precip Events Conditions
12:39 AM 46.4 °F - 46.4 °F 100% 30.18 in 4.0 mi Calm Calm - N/A   Mostly Cloudy
12:47 AM 46.4 °F - 46.4 °F 100% 30.18 in 2.5 mi Calm Calm - N/A   Mostly Cloudy
12:54 AM 46.9 °F - 46.0 °F 97% 30.17 in 2.0 mi Calm Calm - N/A   Mostly Cloudy
1:05 AM 46.4 °F - 44.6 °F 93% 30.17 in 4.0 mi Calm Calm - N/A   Overcast
1:14 AM 46.4 °F - 44.6 °F 93% 30.17 in 1.8 mi Calm Calm - N/A   Overcast
1:27 AM 46.4 °F - 44.6 °F 93% 30.17 in 0.5 mi Calm Calm - N/A Fog Fog
1:42 AM 44.6 °F - 44.6 °F 100% 30.18 in 0.2 mi Calm Calm - N/A Fog Fog
1:54 AM 45.0 °F - 44.1 °F 97% 30.18 in 0.2 mi Calm Calm - N/A Fog Fog
2:54 AM 45.0 °F - 45.0 °F 100% 30.19 in 0.2 mi Calm Calm - N/A Fog Fog
3:49 AM 44.6 °F - 44.6 °F 100% 30.19 in 0.8 mi Calm Calm - N/A   Mist
3:54 AM 45.0 °F - 44.1 °F 97% 30.19 in 1.0 mi Calm Calm - N/A   Mist
4:03 AM 44.6 °F - 44.6 °F 100% 30.19 in 0.8 mi Calm Calm - N/A   Overcast
4:09 AM 44.6 °F - 44.6 °F 100% 30.19 in 2.5 mi Calm Calm - N/A   Overcast
4:22 AM 44.6 °F - 44.6 °F 100% 30.19 in 0.8 mi Calm Calm - N/A   Overcast
4:38 AM 44.6 °F 43.1 °F 44.6 °F 100% 30.19 in 0.2 mi East 3.5 mph - N/A Fog Fog
4:54 AM 45.0 °F - 45.0 °F 100% 30.19 in 0.2 mi Calm Calm - N/A Fog Fog
5:04 AM 44.6 °F 43.1 °F 44.6 °F 100% 30.20 in 0.2 mi East 3.5 mph - N/A Fog Fog
5:54 AM 45.0 °F 43.5 °F 45.0 °F 100% 30.21 in 0.2 mi SE 3.5 mph - N/A Fog Fog
6:54 AM 44.1 °F - 43.0 °F 96% 30.22 in 0.8 mi Calm Calm - N/A   Mist
6:59 AM 42.8 °F - 42.8 °F 100% 30.22 in 2.5 mi Calm Calm - N/A   Mostly Cloudy
7:04 AM 42.8 °F - 42.8 °F 100% 30.23 in 7.0 mi Calm Calm - N/A   Scattered Clouds
7:22 AM 42.8 °F 41.1 °F 42.8 °F 100% 30.24 in 1.5 mi NE 3.5 mph - N/A   Mostly Cloudy
7:35 AM 44.6 °F 41.4 °F 42.8 °F 93% 30.25 in 0.2 mi NNE 5.8 mph - N/A Fog Fog
7:54 AM 44.1 °F - 44.1 °F 100% 30.25 in 0.2 mi Calm Calm - N/A Fog Fog
7:59 AM 44.6 °F - 44.6 °F 100% 30.26 in 1.0 mi Calm Calm - N/A   Mist
8:02 AM 44.6 °F - 44.6 °F 100% 30.26 in 3.0 mi Calm Calm - N/A   Mostly Cloudy
8:12 AM 44.6 °F - 44.6 °F 100% 30.26 in 10.0 mi Calm Calm - N/A   Scattered Clouds
8:54 AM 46.9 °F - 46.0 °F 97% 30.27 in 8.0 mi Calm Calm - N/A   Clear
9:54 AM 53.1 °F - 48.0 °F 83% 30.29 in 8.0 mi ENE 3.5 mph - N/A   Clear
10:54 AM 57.9 °F - 50.0 °F 75% 30.31 in 6.0 mi East 5.8 mph - N/A   Haze
11:54 AM 61.0 °F - 50.0 °F 67% 30.31 in 7.0 mi East 8.1 mph - N/A   Clear
12:54 PM 63.0 °F - 50.0 °F 63% 30.30 in 10.0 mi SSE 6.9 mph - N/A   Clear
1:54 PM 64.0 °F - 51.1 °F 63% 30.29 in 10.0 mi East 8.1 mph - N/A   Clear
2:54 PM 64.9 °F - 51.1 °F 61% 30.27 in 10.0 mi ESE 9.2 mph - N/A   Clear
3:54 PM 64.9 °F - 50.0 °F 58% 30.27 in 10.0 mi SE 8.1 mph - N/A   Clear
4:54 PM 63.0 °F - 48.9 °F 60% 30.27 in 10.0 mi SSE 8.1 mph - N/A   Clear
5:54 PM 60.1 °F - 48.0 °F 64% 30.28 in 10.0 mi SSE 10.4 mph - N/A   Clear
6:54 PM 53.1 °F - 46.0 °F 77% 30.30 in 10.0 mi ESE 8.1 mph - N/A   Clear
7:41 PM 46.4 °F 41.9 °F 44.6 °F 93% 30.32 in 8.0 mi East 9.2 mph - N/A   Scattered Clouds
7:50 PM 46.4 °F 41.1 °F 46.4 °F 100% 30.32 in 7.0 mi ESE 11.5 mph - N/A   Mostly Cloudy
7:54 PM 46.9 °F - 45.0 °F 93% 30.32 in 7.0 mi ESE 11.5 mph - N/A   Mostly Cloudy
8:06 PM 46.4 °F 41.9 °F 46.4 °F 100% 30.32 in 6.0 mi East 9.2 mph - N/A   Overcast
8:54 PM 46.9 °F - 45.0 °F 93% 30.33 in 6.0 mi SE 9.2 mph - N/A   Overcast
9:54 PM 46.4 °F 41.9 °F 44.6 °F 93% 30.35 in 4.0 mi SE 9.2 mph - N/A   Overcast
10:54 PM 46.0 °F 41.4 °F 45.0 °F 96% 30.35 in 4.0 mi SE 9.2 mph - N/A   Overcast
11:54 PM 46.0 °F 43.1 °F 45.0 °F 96% 30.36 in 6.0 mi SE 5.8 mph - N/A   Overcast